Zurück zum Katalog

STARLINK-5559

AktivKommunikationSSO
NORAD 56335·PAYLOAD·🇺🇸 United States

Gestartet Apr 27, 2023 von Vandenberg Space Force Base

Loading…

Nächste Überflüge (nächste 24 Stunden)

TLE

AktuellSource: CelesTrak SupGP

Epoche: Sep 14, 2026, 22:00 UTC

1 56335C 23058U   26257.91715278  .00057226  00000+0  17767-2 0  2570
2 56335  97.2849 254.7636 0001592  84.7597 151.2622 15.33405377    11

Verfolge STARLINK-5559 in Echtzeit mit AllMySat

Download on the App Store